Weather reports worldwide

Advertisment
Belgrad, Serbia (13274): temperature & dewpoint: 14.02.2018 06:00:00 - 20.02.2018 06:00:00 (CET)Belgrad, Serbia (13274): wind speed: 14.02.2018 06:00:00 - 20.02.2018 06:00:00 (CET)Belgrad, Serbia (13274): wind direction: 14.02.2018 06:00:00 - 20.02.2018 06:00:00 (CET)Belgrad, Serbia (13274): reduced air pressure: 14.02.2018 06:00:00 - 20.02.2018 06:00:00 (CET)Belgrad, Serbia (13274): visibility: 14.02.2018 06:00:00 - 20.02.2018 06:00:00 (CET)
Date & Time tt [°C] td [°C] ff [km/h] ff [kn] dd ppp [hPa] vv [km]
20.02.2018 06:00:00 - - - - - - -
20.02.2018 05:00:00 - - - - - - -
20.02.2018 04:00:00 1,3 -1,2 14 8 ESE 1013,4 8
20.02.2018 03:00:00 - - - - - - -
20.02.2018 02:00:00 - - - - - - -
20.02.2018 01:00:00 1,7 -0,6 18 10 ESE 1015,4 4,0
20.02.2018 00:00:00 - - - - - - -
19.02.2018 23:00:00 - - - - - - -
19.02.2018 22:00:00 1,4 0,1 18 10 ESE 1017,6 4,0
19.02.2018 21:00:00 - - - - - - -
19.02.2018 20:00:00 - - - - - - -
19.02.2018 19:00:00 2,1 0,4 14 8 E 1019,0 4,0
19.02.2018 18:00:00 - - - - - - -
19.02.2018 17:00:00 - - - - - - -
19.02.2018 16:00:00 3,2 1,2 14 8 E 1019,7 5
19.02.2018 15:00:00 - - - - - - -
19.02.2018 14:00:00 - - - - - - -
19.02.2018 13:00:00 2,3 -0,9 4 2 NE 1021,3 5
19.02.2018 12:00:00 - - - - - - -
19.02.2018 11:00:00 - - - - - - -
19.02.2018 10:00:00 0,2 -2,5 4 2 SSW 1022,9 8
19.02.2018 09:00:00 - - - - - - -
19.02.2018 08:00:00 - - - - - - -
19.02.2018 07:00:00 -0,8 -3,3 4 2 NNW 1022,8 12
19.02.2018 06:00:00 - - - - - - -
19.02.2018 05:00:00 - - - - - - -
19.02.2018 04:00:00 -0,2 -2,9 4 2 NNW 1022,9 15
19.02.2018 03:00:00 - - - - - - -
19.02.2018 02:00:00 - - - - - - -
19.02.2018 01:00:00 1,2 -1,9 7 4 NNE 1024,0 17
19.02.2018 00:00:00 - - - - - - -
18.02.2018 23:00:00 - - - - - - -
18.02.2018 22:00:00 2,4 1,5 7 4 W 1024,7 8
18.02.2018 21:00:00 - - - - - - -
18.02.2018 20:00:00 - - - - - - -
18.02.2018 19:00:00 2,2 1,5 7 4 NW 1024,8 6
18.02.2018 18:00:00 - - - - - - -
18.02.2018 17:00:00 - - - - - - -
18.02.2018 16:00:00 2,7 1,8 7 4 NNW 1023,5 6
18.02.2018 15:00:00 - - - - - - -
18.02.2018 14:00:00 - - - - - - -
18.02.2018 13:00:00 3,3 2,3 7 4 NNW 1022,5 6
18.02.2018 12:00:00 - - - - - - -
18.02.2018 11:00:00 - - - - - - -
18.02.2018 10:00:00 3,8 2,8 4 2 NW 1021,0 6
18.02.2018 09:00:00 - - - - - - -
18.02.2018 08:00:00 - - - - - - -
18.02.2018 07:00:00 3,7 2,5 7 4 WSW 1019,8 6
18.02.2018 06:00:00 - - - - - - -
18.02.2018 05:00:00 - - - - - - -
18.02.2018 04:00:00 4,0 2,5 4 2 S 1018,7 12
18.02.2018 03:00:00 - - - - - - -
18.02.2018 02:00:00 - - - - - - -
18.02.2018 01:00:00 6,2 2,8 4 2 SSE 1018,0 12
18.02.2018 00:00:00 - - - - - - -
17.02.2018 23:00:00 - - - - - - -
17.02.2018 22:00:00 6,6 2,5 4 2 ESE 1018,1 10
17.02.2018 21:00:00 - - - - - - -
17.02.2018 20:00:00 - - - - - - -
17.02.2018 19:00:00 6,2 1,2 4 2 E 1020,1 12
17.02.2018 18:00:00 - - - - - - -
17.02.2018 17:00:00 - - - - - - -
17.02.2018 16:00:00 7,7 1,2 11 6 E 1021,4 15
17.02.2018 15:00:00 - - - - - - -
17.02.2018 14:00:00 - - - - - - -
17.02.2018 13:00:00 7,3 0,6 7 4 ESE 1024,5 13
17.02.2018 12:00:00 - - - - - - -
17.02.2018 11:00:00 - - - - - - -
17.02.2018 10:00:00 4,9 2,3 4 2 NE 1027,1 5
17.02.2018 09:00:00 - - - - - - -
17.02.2018 08:00:00 - - - - - - -
17.02.2018 07:00:00 2,5 1,2 4 2 SSW 1028,8 3,0
17.02.2018 06:00:00 - - - - - - -
17.02.2018 05:00:00 - - - - - - -
17.02.2018 04:00:00 2,9 0,9 4 2 WNW 1028,8 3,0
17.02.2018 03:00:00 - - - - - - -
17.02.2018 02:00:00 - - - - - - -
17.02.2018 01:00:00 3,5 2,0 7 4 W 1028,9 3,0
17.02.2018 00:00:00 - - - - - - -
16.02.2018 23:00:00 - - - - - - -
16.02.2018 22:00:00 5,0 1,2 4 2 ESE 1028,0 10
16.02.2018 21:00:00 - - - - - - -
16.02.2018 20:00:00 - - - - - - -
16.02.2018 19:00:00 5,8 0,6 4 2 NE 1027,1 12
16.02.2018 18:00:00 - - - - - - -
16.02.2018 17:00:00 - - - - - - -
16.02.2018 16:00:00 8,1 0,6 7 4 SE 1025,3 12
16.02.2018 15:00:00 - - - - - - -
16.02.2018 14:00:00 - - - - - - -
16.02.2018 13:00:00 8,1 0,1 7 4 SSE 1026,0 6
16.02.2018 12:00:00 - - - - - - -
16.02.2018 11:00:00 - - - - - - -
16.02.2018 10:00:00 4,9 0,4 11 6 SE 1026,2 6
16.02.2018 09:00:00 - - - - - - -
16.02.2018 08:00:00 - - - - - - -
16.02.2018 07:00:00 1,4 0,4 4 2 ESE 1027,0 6
16.02.2018 06:00:00 - - - - - - -
16.02.2018 05:00:00 - - - - - - -
16.02.2018 04:00:00 2,1 0,9 0 0 N 1027,2 6
16.02.2018 03:00:00 - - - - - - -
16.02.2018 02:00:00 - - - - - - -
16.02.2018 01:00:00 2,6 0,4 4 2 W 1027,2 6
16.02.2018 00:00:00 - - - - - - -
15.02.2018 23:00:00 - - - - - - -
15.02.2018 22:00:00 2,9 0,4 4 2 NNE 1026,9 6
15.02.2018 21:00:00 - - - - - - -
15.02.2018 20:00:00 - - - - - - -
15.02.2018 19:00:00 3,1 0,4 4 2 NNW 1025,9 6
15.02.2018 18:00:00 - - - - - - -
15.02.2018 17:00:00 - - - - - - -
15.02.2018 16:00:00 3,3 0,1 4 2 NNW 1024,4 6
15.02.2018 15:00:00 - - - - - - -
15.02.2018 14:00:00 - - - - - - -
15.02.2018 13:00:00 2,7 0,1 4 2 NW 1023,7 6
15.02.2018 12:00:00 - - - - - - -
15.02.2018 11:00:00 - - - - - - -
15.02.2018 10:00:00 1,8 0,1 7 4 NW 1022,8 3,0
15.02.2018 09:00:00 - - - - - - -
15.02.2018 08:00:00 - - - - - - -
15.02.2018 07:00:00 1,4 0,1 7 4 WNW 1020,9 5
15.02.2018 06:00:00 - - - - - - -
15.02.2018 05:00:00 - - - - - - -
15.02.2018 04:00:00 1,5 -0,2 7 4 WNW 1018,8 10
15.02.2018 03:00:00 - - - - - - -
15.02.2018 02:00:00 - - - - - - -
15.02.2018 01:00:00 1,4 0,1 7 4 WNW 1018,2 7
15.02.2018 00:00:00 - - - - - - -
14.02.2018 23:00:00 - - - - - - -
14.02.2018 22:00:00 1,5 0,6 11 6 W 1017,3 4,0
14.02.2018 21:00:00 - - - - - - -
14.02.2018 20:00:00 - - - - - - -
14.02.2018 19:00:00 1,4 0,4 7 4 W 1016,1 4,0
14.02.2018 18:00:00 - - - - - - -
14.02.2018 17:00:00 - - - - - - -
14.02.2018 16:00:00 2,4 0,9 14 8 W 1014,5 4,0
14.02.2018 15:00:00 - - - - - - -
14.02.2018 14:00:00 - - - - - - -
14.02.2018 13:00:00 2,8 0,6 7 4 W 1013,6 4,0
14.02.2018 12:00:00 - - - - - - -
14.02.2018 11:00:00 - - - - - - -
14.02.2018 10:00:00 1,5 0,6 14 8 W 1012,8 4,0
14.02.2018 09:00:00 - - - - - - -
14.02.2018 08:00:00 - - - - - - -
14.02.2018 07:00:00 0,6 0,1 11 6 W 1011,2 1,0
14.02.2018 06:00:00 - - - - - - -

tt = temperature
td = dewpoint
ff = wind speed
dd = wind direction
ppp = reduced air pressure
vv = visibility

Next stations